Palestine, TX

7:57 AM CDT on July 23, 2017 (GMT -0500)
Palestine Municipal

Weather History for KPSN - February, 2013

Change the Weather History Date:

Thursday, February 28, 2013

  Actual Average (KTYR) Record (KTYR)
Temperature  
Mean Temperature 44 °F -  
Max Temperature 56 °F 60 °F 84 °F (1950)
Min Temperature 33 °F 41 °F 24 °F (1962)
Degree Days  
Heating Degree Days 20    
Moisture  
Dew Point 28 °F    
Average Humidity 54    
Maximum Humidity 77    
Minimum Humidity 32    
Precipitation  
Precipitation 0.00 in - - ()
Sea Level Pressure  
Sea Level Pressure 30.24 in    
Wind  
Wind Speed 7 mph (NW)    
Max Wind Speed 15 mph    
Max Gust Speed 21 mph    
Visibility 10 miles    
Events      
Averages and records for this station are not official NWS values.
T = Trace of Precipitation, MM = Missing Value Source: NWS Daily Summary

Daily Weather History Graph

Daily Weather History Graph

Search for Another Location

Airport or City:

Trip Planner

Search our weather history database for the weather conditions in past years. The results will help you decide how hot, cold, wet, or windy it might be!

Date:

Astronomy

Feb. 28, 2013 Rise Set
Actual Time 6:50 AM CST 6:20 PM CST
Civil Twilight 6:26 AM CST 6:44 PM CST
Nautical Twilight 5:57 AM CST 7:12 PM CST
Astronomical Twilight 5:29 AM CST 7:41 PM CST
Moon 9:31 PM CST (2/28) 8:15 AM CST (2/28)
Length of Visible Light 12h 18m
Length of Day
11h 29m
Waning Gibbous, 90% of the Moon is Illuminated
Feb 28
Waning Gibbous
Mar 4
Last Quarter
Mar 11
New
Mar 19
First Quarter
Mar 27
Full

Hourly Weather History & Observations

Time (CST) Temp. Windchill Dew Point Humidity Pressure Visibility Wind Dir Wind Speed Gust Speed Precip Events Conditions
12:15 AM 42.8 °F 37.5 °F 23.9 °F 47% 30.21 in 10.0 mi NNW 9.2 mph 16.1 mph N/A   Clear
12:35 AM 42.1 °F 36.6 °F 24.1 °F 49% 30.22 in 10.0 mi NW 9.2 mph - N/A   Clear
12:55 AM 41.7 °F 34.8 °F 24.8 °F 51% 30.23 in 10.0 mi NNW 12.7 mph - N/A   Clear
1:15 AM 41.2 °F 35.0 °F 25.3 °F 53% 30.23 in 10.0 mi NW 10.4 mph - N/A   Clear
1:35 AM 40.5 °F 35.1 °F 25.7 °F 56% 30.23 in 10.0 mi NW 8.1 mph - N/A   Clear
1:55 AM 39.9 °F 33.9 °F 25.9 °F 57% 30.23 in 10.0 mi NW 9.2 mph - N/A   Clear
2:15 AM 39.2 °F 35.0 °F 26.2 °F 60% 30.24 in 10.0 mi NW 5.8 mph - N/A   Clear
2:35 AM 38.8 °F 33.8 °F 26.6 °F 61% 30.24 in 10.0 mi NW 6.9 mph - N/A   Clear
2:55 AM 38.1 °F 33.7 °F 26.6 °F 63% 30.25 in 10.0 mi NW 5.8 mph - N/A   Clear
3:15 AM 37.2 °F 31.9 °F 27.0 °F 66% 30.24 in 10.0 mi NW 6.9 mph - N/A   Clear
3:35 AM 36.9 °F 30.1 °F 27.1 °F 68% 30.23 in 10.0 mi NW 9.2 mph - N/A   Clear
3:55 AM 36.9 °F 31.4 °F 27.3 °F 68% 30.23 in 10.0 mi NW 6.9 mph - N/A   Clear
4:15 AM 36.0 °F 33.3 °F 27.1 °F 70% 30.24 in 10.0 mi NW 3.5 mph - N/A   Clear
4:35 AM 34.7 °F - 26.2 °F 71% 30.24 in 10.0 mi Calm Calm - N/A   Clear
4:55 AM 34.3 °F 29.2 °F 26.6 °F 73% 30.25 in 10.0 mi NW 5.8 mph - N/A   Clear
5:15 AM 35.1 °F 28.6 °F 27.5 °F 74% 30.24 in 10.0 mi NW 8.1 mph - N/A   Clear
5:35 AM 35.1 °F 32.2 °F 27.1 °F 73% 30.25 in 10.0 mi WNW 3.5 mph - N/A   Clear
5:55 AM 34.7 °F - 27.3 °F 74% 30.25 in 10.0 mi Calm Calm - N/A   Clear
6:15 AM 34.3 °F 31.4 °F 27.1 °F 75% 30.25 in 10.0 mi West 3.5 mph - N/A   Clear
6:35 AM 33.4 °F 29.1 °F 27.0 °F 77% 30.26 in 10.0 mi WNW 4.6 mph - N/A   Clear
6:55 AM 34.2 °F 30.0 °F 27.3 °F 76% 30.27 in 10.0 mi NW 4.6 mph - N/A   Clear
7:15 AM 34.0 °F 31.0 °F 27.5 °F 77% 30.27 in 10.0 mi NW 3.5 mph - N/A   Clear
7:35 AM 35.1 °F - 27.9 °F 75% 30.28 in 10.0 mi Calm Calm - N/A   Clear
8:15 AM 37.8 °F 31.8 °F 28.9 °F 71% 30.29 in 10.0 mi NW 8.1 mph - N/A   Clear
8:35 AM 39.4 °F 33.8 °F 29.1 °F 67% 30.31 in 10.0 mi NW 8.1 mph - N/A   Clear
8:55 AM 41.0 °F 34.7 °F 29.7 °F 64% 30.31 in 10.0 mi WNW 10.4 mph - N/A   Clear
9:15 AM 42.6 °F 37.8 °F 30.0 °F 61% 30.31 in 10.0 mi NW 8.1 mph - N/A   Clear
9:35 AM 43.7 °F 39.1 °F 30.0 °F 59% 30.31 in 10.0 mi NNW 8.1 mph - N/A   Clear
9:55 AM 44.4 °F 39.5 °F 29.5 °F 56% 30.31 in 10.0 mi NNW 9.2 mph - N/A   Clear
10:15 AM 45.9 °F 41.2 °F 30.0 °F 54% 30.31 in 10.0 mi NW 9.2 mph - N/A   Clear
10:35 AM 47.1 °F - 28.2 °F 48% 30.31 in 10.0 mi NNW 8.1 mph 17.3 mph N/A   Clear
10:55 AM 47.8 °F - 28.6 °F 47% 30.31 in 10.0 mi WNW 11.5 mph - N/A   Clear
11:15 AM 48.2 °F - 27.9 °F 45% 30.30 in 10.0 mi NNW 8.1 mph - N/A   Clear
11:35 AM 49.8 °F - 27.9 °F 43% 30.30 in 10.0 mi NNW 5.8 mph - N/A   Clear
11:55 AM 50.7 °F - 27.7 °F 41% 30.29 in 10.0 mi NW 6.9 mph - N/A   Clear
12:15 PM 51.1 °F - 27.5 °F 40% 30.28 in 10.0 mi WNW 10.4 mph - N/A   Clear
12:35 PM 52.2 °F - 27.5 °F 39% 30.27 in 10.0 mi NNW 11.5 mph 17.3 mph N/A   Clear
12:55 PM 52.7 °F - 26.4 °F 36% 30.26 in 10.0 mi North 10.4 mph - N/A   Clear
1:15 PM 52.7 °F - 26.6 °F 36% 30.25 in 10.0 mi NNW 15.0 mph - N/A   Clear
1:35 PM 52.7 °F - 27.1 °F 37% 30.24 in 10.0 mi WNW 6.9 mph 16.1 mph N/A   Clear
1:55 PM 53.1 °F - 28.6 °F 39% 30.23 in 10.0 mi WNW 5.8 mph 18.4 mph N/A   Clear
2:15 PM 55.0 °F - 28.9 °F 37% 30.22 in 10.0 mi WNW 6.9 mph 18.4 mph N/A   Clear
2:35 PM 54.7 °F - 28.9 °F 37% 30.22 in 10.0 mi West 11.5 mph 16.1 mph N/A   Clear
2:55 PM 55.2 °F - 28.6 °F 36% 30.21 in 10.0 mi NNW 9.2 mph 17.3 mph N/A   Clear
3:15 PM 55.6 °F - 28.0 °F 35% 30.20 in 10.0 mi WNW 10.4 mph 19.6 mph N/A   Clear
3:35 PM 56.3 °F - 28.2 °F 34% 30.20 in 10.0 mi NW 15.0 mph 20.7 mph N/A   Clear
3:55 PM 56.1 °F - 26.8 °F 32% 30.20 in 10.0 mi NW 13.8 mph 19.6 mph N/A   Clear
4:15 PM 55.6 °F - 26.6 °F 33% 30.19 in 10.0 mi NW 8.1 mph 17.3 mph N/A   Clear
4:35 PM 55.4 °F - 26.6 °F 33% 30.19 in 10.0 mi NW 12.7 mph 19.6 mph N/A   Clear
4:55 PM 55.0 °F - 26.2 °F 33% 30.19 in 10.0 mi NW 10.4 mph 17.3 mph N/A   Clear
5:15 PM 55.0 °F - 25.9 °F 33% 30.19 in 10.0 mi NW 8.1 mph - N/A   Clear
5:35 PM 54.5 °F - 26.2 °F 34% 30.19 in 10.0 mi NNW 9.2 mph - N/A   Clear
5:55 PM 54.0 °F - 25.7 °F 34% 30.19 in 10.0 mi NW 6.9 mph - N/A   Clear
6:15 PM 52.5 °F - 25.9 °F 36% 30.19 in 10.0 mi NW 5.8 mph - N/A   Clear
6:35 PM 51.3 °F - 25.7 °F 37% 30.20 in 10.0 mi NW 4.6 mph - N/A   Clear
6:55 PM 50.4 °F - 25.5 °F 38% 30.20 in 10.0 mi NW 4.6 mph - N/A   Clear
7:15 PM 50.2 °F - 25.5 °F 38% 30.20 in 10.0 mi NW 3.5 mph - N/A   Clear
7:35 PM 47.1 °F - 26.2 °F 44% 30.20 in 10.0 mi Calm Calm - N/A   Clear
7:55 PM 43.2 °F - 28.4 °F 56% 30.21 in 10.0 mi Calm Calm - N/A   Clear
8:15 PM 42.4 °F - 29.3 °F 60% 30.21 in 10.0 mi Calm Calm - N/A   Clear
8:35 PM 40.1 °F - 29.7 °F 66% 30.21 in 10.0 mi Calm Calm - N/A   Clear
8:55 PM 39.2 °F - 30.7 °F 72% 30.21 in 10.0 mi Calm Calm - N/A   Clear
9:15 PM 38.3 °F - 30.9 °F 75% 30.22 in 10.0 mi Calm Calm - N/A   Clear
9:35 PM 40.1 °F 36.9 °F 28.8 °F 64% 30.23 in 10.0 mi NNW 4.6 mph - N/A   Clear
9:55 PM 40.1 °F 36.9 °F 28.6 °F 63% 30.23 in 10.0 mi NW 4.6 mph - N/A   Clear
10:15 PM 39.6 °F 37.4 °F 29.1 °F 66% 30.24 in 10.0 mi WNW 3.5 mph - N/A   Clear
10:35 PM 38.1 °F - 29.3 °F 71% 30.24 in 10.0 mi Calm Calm - N/A   Clear
10:55 PM 37.2 °F - 29.3 °F 73% 30.23 in 10.0 mi Calm Calm - N/A   Clear
11:15 PM 36.0 °F - 28.9 °F 76% 30.23 in 10.0 mi Calm Calm - N/A   Clear
11:35 PM 41.0 °F - 28.0 °F 60% 30.24 in 10.0 mi Calm Calm - N/A   Clear
11:55 PM 38.8 °F - 28.0 °F 65% 30.23 in 10.0 mi Calm Calm - N/A   Clear